Flag for Cuba Weather past 2 weeks in Holguín, Cuba

Now
90 °F

Passing clouds.


Feels Like: 92 °F
Forecast: 75 / 91 °F
Wind: 17 mph from East

Location: Holguin Civ / Mil

Current Time: Jul 6, 2015 at 12:03:41 PM

Latest Report: Jul 6, 2015 at 10:50 AM


Visibility: 6 mi

Pressure: 30.09 "Hg

Humidity: 46%

Dew point: 66 °F

Location of HolguínLocation

Historic Weather in Holguín — Graph

°F

Holguín temperature yesterday

Maximum temperature yesterday: 95 °F (at 1:51 PM)
Minimum temperature yesterday: 81 °F (at 12:50 AM)
Average temperature yesterday: 86 °F

Past Weeks' High & Low Weather Summary

 TemperatureHumidityPressure
High99 °F (Jun 28, 1:50 PM)94% (Jun 29, 6:53 AM)30.12 "Hg (Jun 29, 6:53 AM)
Low73 °F (Jun 22, 2:51 AM)28% (Jun 26, 2:50 PM)29.95 "Hg (Jul 2, 4:51 PM)
Average84 °F63%30.04 "Hg
* Reported Jun 21 10:50 AM — Jul 6 10:50 AM, Holguín, Weather by CustomWeather, © 2015

Note: Actual official high and low records may vary slightly from our data, if they occured in-between our weather recording intervals... More about our weather records

Advertising

Holguín weather history for previous 24 hours

 ConditionsComfort  
Time TempWeatherWind HumidityBarometerVisibility
10:50 AM
Mon, Jul 6
90 °FPassing clouds.17 mph46%30.09 "Hg6 mi
9:50 AM86 °FPassing clouds.18 mph55%30.09 "Hg6 mi
8:50 AM84 °FPassing clouds.15 mph62%30.09 "Hg6 mi
7:50 AM81 °FPassing clouds.10 mph74%30.09 "Hg6 mi
6:55 AM79 °FFog.6 mph79%30.07 "Hg4 mi
5:50 AM79 °FClear.6 mph79%30.07 "Hg5 mi
4:50 AM79 °FClear.9 mph79%30.07 "Hg10 mi
3:50 AM79 °FClear.13 mph74%30.04 "Hg10 mi
2:50 AM79 °FClear.14 mph74%30.04 "Hg10 mi
1:51 AM81 °FClear.15 mph70%30.07 "Hg10 mi
12:50 AM81 °FClear.17 mph70%30.07 "Hg10 mi
11:50 PM
Sun, Jul 5
81 °FClear.14 mph70%30.07 "Hg10 mi
10:50 PM81 °FClear.15 mph70%30.09 "Hg10 mi
9:50 PM82 °FClear.15 mph62%30.07 "Hg10 mi
8:50 PM84 °FClear.16 mph55%30.07 "Hg10 mi
7:50 PM86 °FSunny.16 mph49%30.04 "Hg10 mi
6:50 PM88 °FPassing clouds.15 mph46%30.04 "HgN/A
5:53 PM91 °FPassing clouds.14 mph49%30.01 "Hg6 mi
4:51 PM95 °FPassing clouds.15 mph36%30.01 "Hg6 mi
3:50 PM95 °FScattered clouds.12 mph39%30.04 "Hg6 mi
2:50 PM95 °FScattered clouds.9 mph36%30.04 "Hg6 mi
1:51 PM95 °FScattered clouds.8 mph39%30.04 "Hg6 mi
12:50 PM93 °FScattered clouds.9 mph44%30.07 "Hg6 mi
Weather by CustomWeather, © 2015

See weather overviewHow to use our weather pages